Location: Unspecified
(47.5840°N, 122.3000°W)
Time: 01:36:09
(UTC+00:00)

Cosmos 858 Rocket - Pass Details

Date: 09 December 2025
Orbit: 752 x 770 km, 74.1° (Epoch: 17 January)

Event Time Altitude Azimuth Distance (km) Brightness Sun altitude
Exits shadow 13:48:08 29° 320° (NW) 1,359 5.3 -18.9°
Maximum altitude 13:50:36 58° 253° (WSW) 880 4.5 -18.5°
Drops below altitude 10° 13:55:40 10° 175° (S) 2,279 7.2 -17.7°
Sets 13:58:03 0° 172° (S) 3,202 8.0 -17.3°
